2017-030A

Last updated on Mon Jun 05 2017 00:15:04 GMT+0000 (Coordinated Universal Time)

1 42744U 17030A 17155.08520318 -.00003581 11321-4 00000-0 0 9998 2 42744 51.6384 103.8559 0116943 46.6337 65.4545 15.97018732 39
UTC large
Height (km)
Speed (km/s)
/
Latitude / Longitude
Inclination (degrees)
Orbital Period (minutes)
Azimuth
Elevation
Range (km)
Doppler Factor

Next 0 passes for location: London (51.5072 / 0.1276)

Sorry there are no passes over London.